Location: Poughquag
(41.6090°N, 73.6820°W)
Time: 07:18:36
(UTC-04:00)

ISS - Visible Passes

Search period start: 20 April 2024 00:00
Search period end: 30 April 2024 00:00
Orbit: 412 x 418 km, 51.6° (Epoch: 20 April)

Date Brightness Start Highest point End Pass type
(mag) Time Alt. Az. Time Alt. Az. Time Alt. Az.
21 Apr -2.6 04:56:41 15° SSW 04:59:03 35° SE 05:02:08 10° ENE visible
22 Apr -1.8 04:09:50 20° SE 04:10:18 20° SE 04:12:50 10° E visible
23 Apr -3.8 04:55:43 21° WSW 04:57:47 82° NW 05:01:07 10° NE visible
24 Apr -3.6 04:08:37 54° SSE 04:08:49 56° SE 04:12:05 10° ENE visible
25 Apr -1.4 03:21:25 20° E 03:21:25 20° E 03:22:51 10° ENE visible
25 Apr -2.7 04:54:16 16° W 04:56:31 35° NNW 04:59:38 10° NE visible
26 Apr -3.5 04:06:57 51° WNW 04:07:20 55° NNW 04:10:37 10° NE visible
27 Apr -2.0 03:19:33 32° NE 03:19:33 32° NE 03:21:30 10° NE visible
27 Apr -1.7 04:52:34 10° WNW 04:55:12 21° NNW 04:57:49 10° NE visible
28 Apr -0.5 02:32:04 11° ENE 02:32:04 11° ENE 02:32:14 10° ENE visible
28 Apr -2.2 04:04:54 24° NW 04:05:49 27° NNW 04:08:44 10° NE visible
29 Apr -2.1 03:17:20 32° N 03:17:20 32° N 03:19:36 10° NE visible
29 Apr -1.2 04:51:40 10° NW 04:53:49 16° N 04:55:56 10° NNE visible
